This is the latest recevied weather packets stored in our database for station/object CRYC. If no packets are shown the sender has not sent any weather packets the latest 10 day(s).
| Time | Temp. | Humidity | Pressure | Rain* | Wind** | Luminosity | Snow |
|---|---|---|---|---|---|---|---|
| 1777633870 | 15° C | - | - | 0 mm | 0 m/s | - | - |
| 1777633265 | 13.89° C | - | - | 0 mm | 0 m/s | - | - |
| 1777632662 | 15.56° C | - | - | 0 mm | 0 m/s | - | - |
| 1777632057 | 12.78° C | - | - | 0 mm | 0 m/s | - | - |
| 1777631448 | 11.11° C | - | - | 0 mm | 0 m/s | - | - |
| 1777630843 | 7.78° C | - | - | 0 mm | 0.89 m/s, 42° | - | - |
| 1777630233 | 6.67° C | - | - | 0 mm | 0 m/s | - | - |
| 1777629624 | 6.67° C | - | - | 0 mm | 0.45 m/s, 21° | - | - |
| 1777629018 | 6.67° C | - | - | 0 mm | 0 m/s | - | - |
| 1777627810 | 7.78° C | - | - | 0 mm | 0.89 m/s, 7° | - | - |
| 1777626604 | 7.22° C | - | - | 0 mm | 0.45 m/s, 24° | - | - |
| 1777626002 | 7.22° C | - | - | 0 mm | 0 m/s | - | - |
| 1777625399 | 7.22° C | - | - | 0 mm | 1.34 m/s, 11° | - | - |
| 1777624789 | 7.22° C | - | - | 0 mm | 1.34 m/s, 357° | - | - |
| 1777624184 | 7.78° C | - | - | 0 mm | 0.89 m/s, 318° | - | - |
| 1777623578 | 7.22° C | - | - | 0 mm | 0 m/s | - | - |
| 1777622972 | 8.33° C | - | - | 0 mm | 0.89 m/s, 39° | - | - |
| 1777622365 | 7.78° C | - | - | 0 mm | 0.45 m/s, 32° | - | - |
| 1777621759 | 8.33° C | - | - | 0 mm | 0.89 m/s, 86° | - | - |
| 1777621156 | 8.33° C | - | - | 0 mm | 0.45 m/s, 249° | - | - |
| 1777620551 | 8.33° C | - | - | 0 mm | 1.34 m/s, 354° | - | - |
| 1777619947 | 8.33° C | - | - | 0 mm | 0.89 m/s, 346° | - | - |
| 1777619343 | 8.33° C | - | - | 0 mm | 0.45 m/s, 316° | - | - |
| 1777618733 | 8.33° C | - | - | 0 mm | 0.45 m/s, 340° | - | - |
| 1777617523 | 8.33° C | - | - | 0 mm | 2.24 m/s, 336° | - | - |
* Rain latest hour (hover to see other rain measurements)
** Current wind speed in m/s (hover to see current wind gust speed)